SCP
0 0 0 0 0 0 0 0 0 0 0 0 0 0 0 0 0 0 0 0 0 0 0 0 0 0 0 0 0 0 0 0 0 0 0 0 0 0
0 0 0 0 0 0 0 0 0 0 0 0 0 0 0 0 0 0 0 0 0 0 0 0 0 0 0 0 0 0 0 0 0 0 0 0 0 0
0 0 0 0 0 0 0 0 0 0 0 0 0 0 0 0 0 0 0 0 0 0 0 0 0 0 0 0 0 0 0 0 0 0 0 0 0 0
0 0 0 0 0 0 0 0 0 0 0 0 0 0 0 0 0 0 0 0 0 0 0 0 0 0 0 0 0 0 0 0 0 0 0 0 0 0
0 0 0 0 0 0 0 0 0 0 0 0 0 0 0 0 0 0 0 0 0 0 0 0 0 0 0 0 0 0 0 0 0 0 0 0 0 0
0 0 0 0 0 0 0 0 0 0 0 0 0 0 0 0 0 0 0 0 0 0 0 0 0 0 0 0 0 0 0 0 0 0 0 0 0 0
0 0 0 0 0 0 0 0 0 0 0 0 0 0 0 0 0 0 0 0 0 0 0 0 0 0 0 0 0 0 0 0 0 0 0 0 0 0
0 0 0 0 0 0 0 0 0 0 0 0 0 0 0 0 0 0 0 0 0 0 0 0 0 0 0 0 0 0 0 0 0 0 0 0 0 0
0 0 0 0 0 0 0 0 0 0 0 0 0 0 0 0 0 0 0 0 0 0 0 0 0 0 0 0 0 0 0 0 0 0 0 0 0 0
0 0 0 0 0 0 0 0 0 0 0 0 0 0 0 0 0 0 0 0 0 0 0 0 0 0 0 0 0 0 0 0 0 0 0 0 0 0
0 0 0 0 0 0 0 0 0 0 0 0 0 0 0 0 0 0 0 0 0 0 0 0 0 0 0 0 0 0 0 0 0 0 0 0 0 0
0 0 0 0 0 0 0 0 0 0 0 0 0 0 0 0 0 0 0 0 0 0 0 0 0 0 0 0 0 0 0 0 0 0 0 0 0 0
0 0 0 0 0 0 0 0 0 0 0 0 0 0 0 0 0 0 0 0 0 0 0 0 0 0 0 0 0 0 0 0 0 0 0 0 0 0
0 0 0 0 0 0 0 0 0 0 0 0 0 0 0 0 0 0 0 0 0 0 0 0 0 0 0 0 0 0 0 0 0 0 0 0 0 0
0 0 0 0 0 0 0 0 0 0 -0 0 0 0 0 0 0 0 0 0 0 0 0 0 0 0 0 0 0 0 0 0 0 0 0 0 0 0
0 0 0 0 0 0 0 0 -0 0 0 0 0 0 0 0 0 0 0 0 0 0 0 0 0 0 0 0 0 0 0 0 0 0 0 0 0 0
0 0 0 0 0 0 -0 -0 0 0 0 0 0 0 0 0 0 0 0 0 0 0 0 0 0 0 0 0 0 0 0 0 0 0 0 0 0 0
0 0 0 0 0 -0 -0 -0 0 0 0 0 0 0 0 0 0 0 0 0 0 0 0 0 0 0 0 0 0 0 0 0 0 0 0 0 0 0
0 0 0 0 -0 -0 0 0 0 0 0 0 0 0 0 0 0 0 0 0 0 0 0 0 0 0 0 0 0 0 0 0 0 0 0 0 0 0
0 0 0 -0 0 0 0 0 0 0 0 0 0 0 0 0 0 0 0 0 0 0 0 0 0 0 0 0 0 0 0 0 0 0 0 0 0 0
0 0 0 0 0 0 0 0 0 0 0 0 0 0 0 0 0 0 0 0 0 0 0 0 0 0 0 0 0 0 0 0 0 0 0 0 0 0
0 0 -0 0 0 0 0 0 0 0 0 0 0 0 0 0 0 0 0 0 0 0 0 0 0 0 0 0 0 0 0 0 0 0 0 0 0 0
0 0 -0 0 0 0 0 0 0 0 0 0 0 0 0 0 0 0 0 0 0 0 0 0 0 0 0 0 0 0 0 0 0 0 0 0 0 0
Wind_Speed_500mb
86 78 77 74 71 68 54 37 36 28 32 35 38 30 29 33 43 59 64 64 67 67 65 64 65 67 65 57 53 52 53 53 56 57 58 57 59 59
71 66 72 72 62 53 44 44 39 43 31 24 29 38 43 50 48 63 61 63 65 65 61 61 63 62 55 49 49 50 51 52 54 56 58 59 59 60
61 57 45 36 36 36 34 36 32 32 38 48 45 38 43 50 51 55 59 60 60 61 61 58 54 51 50 51 50 49 51 53 54 55 55 57 58 59
51 47 47 30 35 21 25 32 34 37 37 32 33 45 46 49 53 56 55 57 58 56 51 47 45 47 47 49 50 50 51 53 55 57 59 60 62 65
37 34 29 24 29 29 30 31 24 25 30 34 40 45 52 48 48 44 47 49 49 49 47 46 44 43 45 49 50 53 55 57 58 59 60 61 63 64
31 26 24 26 23 21 18 16 21 25 35 38 36 35 37 31 37 38 40 39 40 43 47 42 42 40 43 45 48 52 54 54 55 57 59 60 62 63
25 23 21 19 19 15 13 21 23 29 34 32 26 29 31 30 33 36 38 38 42 43 39 37 43 48 51 51 51 52 55 59 59 58 57 60 62 64
14 13 12 12 8 15 16 21 29 27 26 27 30 29 33 34 33 31 37 39 44 42 29 49 45 49 52 51 53 52 51 54 56 57 58 58 59 61
9 4 6 8 12 17 21 25 26 29 33 32 35 34 35 31 37 38 36 43 50 46 43 49 49 49 49 52 59 59 48 40 42 49 53 55 57 57
5 3 8 13 18 21 22 27 30 30 33 37 38 37 34 31 33 38 42 45 44 45 40 49 51 48 52 60 69 53 45 48 46 46 50 54 57 60
4 9 12 15 19 19 17 30 30 34 37 37 33 31 32 33 34 39 38 37 47 56 51 36 50 51 67 72 58 55 68 58 56 53 53 55 57 58
12 16 20 21 20 20 25 27 31 31 31 27 25 25 27 29 30 33 36 44 48 51 34 44 67 56 44 69 52 70 64 68 60 59 54 53 51 54
16 19 21 22 23 25 26 27 28 28 24 26 25 26 26 29 28 30 37 45 50 59 62 49 63 66 56 67 78 75 70 71 67 66 60 47 35 41
19 21 24 27 29 28 27 26 24 22 22 24 26 26 29 29 27 33 40 48 52 56 55 48 57 55 57 70 77 78 77 71 68 58 48 53 54 52
24 26 28 27 26 24 22 19 17 17 21 24 26 29 32 30 31 39 45 47 53 51 45 43 47 49 53 64 75 78 76 72 50 55 56 60 59 56
27 28 27 25 23 21 16 14 14 18 22 27 31 33 33 31 35 43 50 52 60 57 50 46 47 47 53 57 66 75 67 65 67 62 64 65 62 56
28 27 25 21 15 12 11 13 16 19 23 29 33 35 32 34 40 47 49 53 58 62 62 51 52 52 54 52 61 63 65 70 66 68 68 74 67 61
25 24 21 16 12 10 11 13 16 20 25 30 34 34 33 36 46 51 51 56 60 59 60 57 58 62 60 56 53 64 69 71 72 67 63 64 70 62
22 21 16 12 11 13 15 17 20 23 28 32 35 33 32 40 49 54 56 61 59 57 58 60 58 56 63 65 62 53 65 70 64 65 59 60 66 66
21 18 15 13 13 15 18 21 24 27 32 34 36 33 35 44 52 57 61 58 58 60 60 58 55 56 59 73 85 79 61 64 66 67 66 64 65 65
20 20 18 16 17 19 22 25 28 32 37 39 39 37 38 45 54 58 61 56 58 61 65 66 65 60 65 67 69 75 78 63 59 62 64 64 70 73
22 21 21 20 21 23 26 30 33 36 39 42 41 43 40 44 55 61 62 64 64 65 71 76 74 70 68 68 74 79 86 76 65 57 55 52 56 57
25 23 23 23 25 27 31 36 39 39 43 46 44 44 42 48 56 61 66 67 68 72 73 80 76 73 72 69 75 80 84 85 77 75 71 59 62 66
Wind_Direction_500mb
242 240 238 242 246 249 255 250 240 243 263 258 255 258 263 266 279 290 290 293 298 301 303 305 302 300 297 294 291 288 287 287 286 284 281 282 279 279
237 236 236 236 239 249 248 240 242 235 231 244 247 256 263 277 288 285 291 293 298 302 305 301 299 298 296 293 290 287 287 286 283 284 282 280 280 278
234 229 229 229 231 228 234 246 249 255 249 257 268 284 288 281 286 289 294 296 299 302 306 301 301 300 296 293 290 288 287 285 283 281 281 279 278 277
227 231 231 240 244 246 248 253 259 256 261 274 294 281 278 279 283 289 292 296 298 303 301 302 303 300 299 297 292 290 287 284 282 281 280 279 278 277
222 226 232 234 247 253 259 260 261 277 284 277 277 283 287 294 299 295 297 300 303 309 308 310 304 302 299 295 295 293 289 286 284 281 280 278 277 276
209 215 231 240 249 258 255 283 286 282 276 279 288 289 290 295 293 300 298 299 305 309 309 310 309 310 306 308 303 298 296 294 291 287 282 279 277 275
208 214 224 238 242 253 276 269 274 270 274 286 290 285 287 294 292 294 299 306 308 307 311 312 312 307 309 308 301 302 300 297 291 286 283 280 278 276
195 197 211 243 261 261 277 278 280 286 287 281 282 289 293 291 294 297 301 305 309 317 304 304 307 302 307 307 309 308 304 296 289 286 282 280 279 276
152 166 230 266 287 291 287 285 289 282 277 280 285 288 288 290 288 302 298 300 299 302 298 299 315 307 311 304 310 314 309 300 296 293 285 282 280 276
177 248 290 295 294 294 293 286 291 293 294 294 290 290 290 295 290 296 298 298 298 304 301 297 314 300 306 306 310 311 313 309 304 298 290 285 280 275
299 289 292 298 298 304 301 297 300 299 298 301 299 297 295 294 296 297 300 296 303 312 313 295 314 303 308 312 318 319 322 320 316 307 295 287 283 279
325 322 319 314 309 299 300 298 300 303 305 310 308 304 303 305 304 301 302 304 307 312 311 308 312 315 311 314 310 313 315 318 315 311 306 300 289 278
316 313 313 312 309 309 308 302 302 308 307 311 313 313 312 312 307 304 308 309 307 304 321 311 304 305 295 298 310 312 315 319 314 311 302 297 291 286
317 317 319 323 321 315 309 307 308 310 309 309 311 315 313 313 307 309 311 308 306 309 317 310 306 309 303 302 304 317 316 315 314 313 312 307 300 292
327 321 318 316 315 312 310 309 309 307 307 311 316 319 318 316 314 314 316 315 313 320 324 321 312 310 305 304 305 310 314 319 314 316 317 315 309 303
324 321 319 320 320 315 315 311 310 312 315 319 319 320 320 318 322 323 322 323 320 325 332 328 322 315 311 311 307 307 316 307 319 320 319 313 310 309
321 322 322 321 317 312 312 314 316 320 321 322 321 321 319 317 322 326 326 327 326 326 326 330 328 323 315 315 310 310 315 316 321 321 319 314 314 314
319 320 321 323 325 323 320 319 321 322 322 322 322 319 316 317 323 328 328 327 324 324 324 328 329 329 323 310 310 309 311 311 316 312 309 305 310 316
319 319 317 319 322 326 327 329 331 327 324 325 323 317 314 320 326 328 329 329 326 321 322 326 320 315 312 305 311 305 302 310 312 312 313 310 308 316
310 307 304 308 313 319 322 328 329 328 328 325 325 320 317 318 325 330 330 331 330 323 317 322 324 321 312 309 313 318 321 317 315 310 310 310 308 313
304 301 294 296 300 309 316 322 324 326 328 324 323 317 313 316 324 328 331 332 325 325 321 323 330 329 319 319 304 305 320 322 316 310 310 307 306 310
297 294 284 284 291 300 310 316 319 322 323 322 319 318 312 315 323 327 332 330 330 329 324 325 326 325 321 314 305 309 321 325 326 321 314 309 300 287
292 289 284 282 287 295 305 310 315 319 321 320 318 319 315 315 323 327 331 330 328 325 318 319 323 323 315 310 309 309 314 325 328 327 324 322 317 314
Wind_Speed_850mb
86 78 77 74 71 68 54 37 36 28 32 35 38 30 29 33 43 59 64 64 67 67 65 64 65 67 65 57 53 52 53 53 56 57 58 57 59 59
71 66 72 72 62 53 44 44 39 43 31 24 29 38 43 50 48 63 61 63 65 65 61 61 63 62 55 49 49 50 51 52 54 56 58 59 59 60
61 57 45 36 36 36 34 36 32 32 38 48 45 38 43 50 51 55 59 60 60 61 61 58 54 51 50 51 50 49 51 53 54 55 55 57 58 59
51 47 47 30 35 21 25 32 34 37 37 32 33 45 46 49 53 56 55 57 58 56 51 47 45 47 47 49 50 50 51 53 55 57 59 60 62 65
37 34 29 24 29 29 30 31 24 25 30 34 40 45 52 48 48 44 47 49 49 49 47 46 44 43 45 49 50 53 55 57 58 59 60 61 63 64
31 26 24 26 23 21 18 16 21 25 35 38 36 35 37 31 37 38 40 39 40 43 47 42 42 40 43 45 48 52 54 54 55 57 59 60 62 63
25 23 21 19 19 15 13 21 23 29 34 32 26 29 31 30 33 36 38 38 42 43 39 37 43 48 51 51 51 52 55 59 59 58 57 60 62 64
14 13 12 12 8 15 16 21 29 27 26 27 30 29 33 34 33 31 37 39 44 42 29 49 45 49 52 51 53 52 51 54 56 57 58 58 59 61
9 4 6 8 12 17 21 25 26 29 33 32 35 34 35 31 37 38 36 43 50 46 43 49 49 49 49 52 59 59 48 40 42 49 53 55 57 57
5 3 8 13 18 21 22 27 30 30 33 37 38 37 34 31 33 38 42 45 44 45 40 49 51 48 52 60 69 53 45 48 46 46 50 54 57 60
4 9 12 15 19 19 17 30 30 34 37 37 33 31 32 33 34 39 38 37 47 56 51 36 50 51 67 72 58 55 68 58 56 53 53 55 57 58
12 16 20 21 20 20 25 27 31 31 31 27 25 25 27 29 30 33 36 44 48 51 34 44 67 56 44 69 52 70 64 68 60 59 54 53 51 54
16 19 21 22 23 25 26 27 28 28 24 26 25 26 26 29 28 30 37 45 50 59 62 49 63 66 56 67 78 75 70 71 67 66 60 47 35 41
19 21 24 27 29 28 27 26 24 22 22 24 26 26 29 29 27 33 40 48 52 56 55 48 57 55 57 70 77 78 77 71 68 58 48 53 54 52
24 26 28 27 26 24 22 19 17 17 21 24 26 29 32 30 31 39 45 47 53 51 45 43 47 49 53 64 75 78 76 72 50 55 56 60 59 56
27 28 27 25 23 21 16 14 14 18 22 27 31 33 33 31 35 43 50 52 60 57 50 46 47 47 53 57 66 75 67 65 67 62 64 65 62 56
28 27 25 21 15 12 11 13 16 19 23 29 33 35 32 34 40 47 49 53 58 62 62 51 52 52 54 52 61 63 65 70 66 68 68 74 67 61
25 24 21 16 12 10 11 13 16 20 25 30 34 34 33 36 46 51 51 56 60 59 60 57 58 62 60 56 53 64 69 71 72 67 63 64 70 62
22 21 16 12 11 13 15 17 20 23 28 32 35 33 32 40 49 54 56 61 59 57 58 60 58 56 63 65 62 53 65 70 64 65 59 60 66 66
21 18 15 13 13 15 18 21 24 27 32 34 36 33 35 44 52 57 61 58 58 60 60 58 55 56 59 73 85 79 61 64 66 67 66 64 65 65
20 20 18 16 17 19 22 25 28 32 37 39 39 37 38 45 54 58 61 56 58 61 65 66 65 60 65 67 69 75 78 63 59 62 64 64 70 73
22 21 21 20 21 23 26 30 33 36 39 42 41 43 40 44 55 61 62 64 64 65 71 76 74 70 68 68 74 79 86 76 65 57 55 52 56 57
25 23 23 23 25 27 31 36 39 39 43 46 44 44 42 48 56 61 66 67 68 72 73 80 76 73 72 69 75 80 84 85 77 75 71 59 62 66
Wind_Direction_850mb
242 240 238 242 246 249 255 250 240 243 263 258 255 258 263 266 279 290 290 293 298 301 303 305 302 300 297 294 291 288 287 287 286 284 281 282 279 279
237 236 236 236 239 249 248 240 242 235 231 244 247 256 263 277 288 285 291 293 298 302 305 301 299 298 296 293 290 287 287 286 283 284 282 280 280 278
234 229 229 229 231 228 234 246 249 255 249 257 268 284 288 281 286 289 294 296 299 302 306 301 301 300 296 293 290 288 287 285 283 281 281 279 278 277
227 231 231 240 244 246 248 253 259 256 261 274 294 281 278 279 283 289 292 296 298 303 301 302 303 300 299 297 292 290 287 284 282 281 280 279 278 277
222 226 232 234 247 253 259 260 261 277 284 277 277 283 287 294 299 295 297 300 303 309 308 310 304 302 299 295 295 293 289 286 284 281 280 278 277 276
209 215 231 240 249 258 255 283 286 282 276 279 288 289 290 295 293 300 298 299 305 309 309 310 309 310 306 308 303 298 296 294 291 287 282 279 277 275
208 214 224 238 242 253 276 269 274 270 274 286 290 285 287 294 292 294 299 306 308 307 311 312 312 307 309 308 301 302 300 297 291 286 283 280 278 276
195 197 211 243 261 261 277 278 280 286 287 281 282 289 293 291 294 297 301 305 309 317 304 304 307 302 307 307 309 308 304 296 289 286 282 280 279 276
152 166 230 266 287 291 287 285 289 282 277 280 285 288 288 290 288 302 298 300 299 302 298 299 315 307 311 304 310 314 309 300 296 293 285 282 280 276
177 248 290 295 294 294 293 286 291 293 294 294 290 290 290 295 290 296 298 298 298 304 301 297 314 300 306 306 310 311 313 309 304 298 290 285 280 275
299 289 292 298 298 304 301 297 300 299 298 301 299 297 295 294 296 297 300 296 303 312 313 295 314 303 308 312 318 319 322 320 316 307 295 287 283 279
325 322 319 314 309 299 300 298 300 303 305 310 308 304 303 305 304 301 302 304 307 312 311 308 312 315 311 314 310 313 315 318 315 311 306 300 289 278
316 313 313 312 309 309 308 302 302 308 307 311 313 313 312 312 307 304 308 309 307 304 321 311 304 305 295 298 310 312 315 319 314 311 302 297 291 286
317 317 319 323 321 315 309 307 308 310 309 309 311 315 313 313 307 309 311 308 306 309 317 310 306 309 303 302 304 317 316 315 314 313 312 307 300 292
327 321 318 316 315 312 310 309 309 307 307 311 316 319 318 316 314 314 316 315 313 320 324 321 312 310 305 304 305 310 314 319 314 316 317 315 309 303
324 321 319 320 320 315 315 311 310 312 315 319 319 320 320 318 322 323 322 323 320 325 332 328 322 315 311 311 307 307 316 307 319 320 319 313 310 309
321 322 322 321 317 312 312 314 316 320 321 322 321 321 319 317 322 326 326 327 326 326 326 330 328 323 315 315 310 310 315 316 321 321 319 314 314 314
319 320 321 323 325 323 320 319 321 322 322 322 322 319 316 317 323 328 328 327 324 324 324 328 329 329 323 310 310 309 311 311 316 312 309 305 310 316
319 319 317 319 322 326 327 329 331 327 324 325 323 317 314 320 326 328 329 329 326 321 322 326 320 315 312 305 311 305 302 310 312 312 313 310 308 316
310 307 304 308 313 319 322 328 329 328 328 325 325 320 317 318 325 330 330 331 330 323 317 322 324 321 312 309 313 318 321 317 315 310 310 310 308 313
304 301 294 296 300 309 316 322 324 326 328 324 323 317 313 316 324 328 331 332 325 325 321 323 330 329 319 319 304 305 320 322 316 310 310 307 306 310
297 294 284 284 291 300 310 316 319 322 323 322 319 318 312 315 323 327 332 330 330 329 324 325 326 325 321 314 305 309 321 325 326 321 314 309 300 287
292 289 284 282 287 295 305 310 315 319 321 320 318 319 315 315 323 327 331 330 328 325 318 319 323 323 315 310 309 309 314 325 328 327 324 322 317 314